Other Public Products
Issued by NWS Grand Forks, ND

Home | Current Version | Previous Version | Graphics & Text | Print | Product List | Glossary On
Versions: 1 2 3 4 5 6 7 8 9 10 11 12 13 14 15 16 17 18 19 20 21 22 23 24 25 26 27 28 29 30 31 32 33 34 35 36 37 38 39 40 41 42 43 44 45 46 47 48 49 50
752
FPUS83 KFGF 230010
OPUFGF
PRAIRIE TO PINES WEATHER ROUNDUP
NATIONAL WEATHER SERVICE EASTERN NORTH DAKOTA/GRAND FORKS ND
700 PM CDT MON MAY 22 2017

 **SATELLITE DATA USED TO AUGMENT SKY COVER AT AUTOMATED STATIONS**
 *****  WEATHER ACROSS EASTERN NORTH DAKOTA  *****

CITY           SKY/WX    TMP DP  RH WIND       PRES   REMARKS
GRAND FORKS    CLOUDY    52  48  86 N17       29.88R
6HR MIN TEMP:  49; 6HR MAX TEMP:  55; 6HR PCP:  0.07;

GRAND FORKS AF CLOUDY    50  47  87 N17G23    29.89R
GRAND CITY NWS NOT AVBL
BUXTON         NOT AVBL
DEVILS LAKE    LGT RAIN  49  45  86 N13       29.96R
6HR MIN TEMP:  49; 6HR MAX TEMP:  54; 6HR PCP:  0.01;

FARGO          LGT RAIN  52  44  74 N15       29.87F
6HR MIN TEMP:  50; 6HR MAX TEMP:  61; 6HR PCP: TRACE;

WAHPETON ARPT  CLOUDY    52  41  66 NW12      29.88S
$$

 *****  WEATHER ACROSS CENTRAL AND WESTERN NORTH DAKOTA  *****

CITY           SKY/WX    TMP DP  RH WIND       PRES   REMARKS
JAMESTOWN      LGT RAIN  50  45  83 NW9       29.93R
6HR MIN TEMP:  50; 6HR MAX TEMP:  59; 6HR PCP:  0.01;

BISMARCK       LGT RAIN  59  41  51 NW12G23   29.99S
6HR MIN TEMP:  57; 6HR MAX TEMP:  64; 6HR PCP: TRACE;

MINOT          CLOUDY    62  34  35 N17G25    29.98R
6HR MIN TEMP:  56; 6HR MAX TEMP:  65; 6HR PCP: TRACE;

MINOT AFB      CLOUDY    62  33  34 NE22G29   29.98R
6HR MIN TEMP:  56; 6HR MAX TEMP:  64; 6HR PCP:  0.01;

GARRISON         N/A     60  36  40 NW12      29.98S
6HR MIN TEMP:  54; 6HR MAX TEMP:  63;

WILLISTON      CLOUDY    66  33  29 N13       30.06S
6HR MIN TEMP:  58; 6HR MAX TEMP:  70; 6HR PCP: TRACE;

DICKINSON      CLOUDY    58  32  37 N15G26    30.03S
6HR MIN TEMP:  56; 6HR MAX TEMP:  62; 6HR PCP: TRACE;

HETTINGER      CLOUDY    57  34  41 N16G24    30.07R
6HR MIN TEMP:  57; 6HR MAX TEMP:  64;

$$

 *****  OTHER OBSERVATIONS NORTHEAST NORTH DAKOTA  *****

CITY           SKY/WX    TMP DP  RH WIND       PRES   REMARKS
WALHALLA       NOT AVBL
LANGDON        MOCLDY    50  48  93 N21G26    29.95R
CAVALIER       MOCLDY    52  46  82 N20       29.91R
GRAFTON        RAIN      52  48  87 N18       29.91R
CANDO          NOT AVBL
FORT TOTTEN    NOT AVBL
ROLLA          CLOUDY    52  37  58 N24G31    29.99R
RUGBY          NOT AVBL
 ***** THE ABOVE OBSERVATIONS ARE NON NWS ARE NOT QUALITY
        CONTROLLED AND MAY MIS-REPORT RAIN FOR SNOW...
$$

 *****  OTHER OBSERVATIONS SOUTHEAST NORTH DAKOTA *****

CITY           SKY/WX    TMP DP  RH WIND       PRES   REMARKS
COOPERSTOWN    MOCLDY    50  46  87 N17       29.92S
VALLEY CITY    NOT AVBL
OAKES          NOT AVBL
GWINNER        MOCLDY    52  43  71 MISG      29.91R
SHEYENNE NWR     N/A     52  40  64 N9        29.95S
BUFFALO        NOT AVBL
WYNDMERE         N/A     54  43  66 NW14        N/A
 ***** THE ABOVE OBSERVATIONS ARE NON NWS ARE NOT QUALITY
       CONTROLLED AND MAY MIS-REPORT RAIN FOR SNOW...
$$

  *****  WEATHER ACROSS NORTHERN MINNESOTA  *****

CITY           SKY/WX    TMP DP  RH WIND       PRES   REMARKS
FLAG ISLAND    LGT RAIN  48  45  87 N17       29.85R
WARROAD        FAIR      50  46  87 N7        29.86R
ROSEAU         DRIZZLE   52  45  76 N8        29.85S
HALLOCK        CLOUDY    52  46  82 N13G23    29.88R
THF RVR FALLS  CLOUDY    50  43  77 N7        29.87R
6HR MIN TEMP:  47; 6HR MAX TEMP:  51; 6HR PCP: TRACE;

HALSTAD        NOT AVBL
FOSSTON        FAIR      50  45  81 N7        29.86S
BAUDETTE       CLOUDY    48  46  93 N7        29.83R
6HR MIN TEMP:  47; 6HR MAX TEMP:  50;

WASKISH        CLOUDY    48  45  87 NW6       29.83R
CROOKSTON      CLOUDY    48  46  93 N8        29.87S
$$
  *****  WEATHER ACROSS CENTRAL AND WEST MINNESOTA  *****

CITY           SKY/WX    TMP DP  RH WIND       PRES   REMARKS
BEMIDJI        LGT RAIN  45  43  92 NW7       29.84S
PARK RAPIDS    CLOUDY    50  41  71 NW9       29.83R
6HR MIN TEMP:  50; 6HR MAX TEMP:  56; 6HR PCP: TRACE;

WADENA         PTSUNNY   54  43  66 NW10G18   29.83S
DETROIT LAKES  FAIR      50  43  76 NW13      29.86S
MOORHEAD       PTSUNNY   52  43  71 N16       29.88F
FERGUS FALLS   PTSUNNY   54  43  66 N14G20    29.86S
ELBOW LAKE     CLOUDY    52  43  71 NW12      29.87S
MORRIS MN      PTSUNNY   55  45  67 N21       29.86R
STAPLES        CLOUDY    52  41  66 W9        29.83S
WHEATON        CLOUDY    54  41  62 NW13G20   29.89F
$$
  *****  WEATHER ELSEWHERE ACROSS MINNESOTA  *****

CITY           SKY/WX    TMP DP  RH WIND       PRES   REMARKS
DULUTH         PTSUNNY   53  44  71 W10       29.80R
6HR MIN TEMP:  50; 6HR MAX TEMP:  54; 6HR PCP: TRACE;

INTRNTL FALLS  CLOUDY    50  42  74 NW7       29.80S
6HR MIN TEMP:  47; 6HR MAX TEMP:  50; 6HR PCP:  0.05;

ELY            CLOUDY    48  45  87 NW3       29.80R
CLOQUET        CLOUDY    52  41  66 W5        29.81R
BRAINERD       CLOUDY    53  42  66 W5        29.82F
6HR MIN TEMP:  52; 6HR MAX TEMP:  56;

HIBBING        CLOUDY    49  43  80 NW7       29.80R
6HR MIN TEMP:  47; 6HR MAX TEMP:  52; 6HR PCP:  0.08;

ALEXANDRIA     CLOUDY    53  40  61 NW10      29.85S
6HR MIN TEMP:  53; 6HR MAX TEMP:  59;

SAINT CLOUD    PTSUNNY   58  42  55 NW8       29.82S
6HR MIN TEMP:  57; 6HR MAX TEMP:  62;

MINNEAPOLIS    FAIR      63  41  44 N9        29.81S
6HR MIN TEMP:  62; 6HR MAX TEMP:  67;

$$

  *****  WEATHER ACROSS SOUTH DAKOTA  *****

CITY           SKY/WX    TMP DP  RH WIND       PRES   REMARKS
SIOUX FALLS    CLOUDY    54  47  77 N16G24    29.88R
6HR MIN TEMP:  54; 6HR MAX TEMP:  65;

BROOKINGS      LGT RAIN  49  47  93 W5        29.89S
WATERTOWN      CLOUDY    55  41  59 N20       29.88R
6HR MIN TEMP:  55; 6HR MAX TEMP:  61;

HURON          CLOUDY    57  47  69 W12       29.91S
6HR MIN TEMP:  50; 6HR MAX TEMP:  58; 6HR PCP:  0.07;

SISSETON         N/A     55  43  63 N15       29.88S
ABERDEEN       CLOUDY    57  37  47 N17G25    29.93R
6HR MIN TEMP:  56; 6HR MAX TEMP:  65;

MITCHELL       PTSUNNY   57  43  59 N13       29.93S
PIERRE         CLOUDY    60  36  40 N20G25    29.96R
6HR MIN TEMP:  55; 6HR MAX TEMP:  62; 6HR PCP: TRACE;

MOBRIDGE       CLOUDY    59  37  44 N18G30    29.97R
RAPID CITY     PTSUNNY   54  39  57 N18       30.09R
6HR MIN TEMP:  47; 6HR MAX TEMP:  62; 6HR PCP:  0.01;

$$

  *****  SOME WEATHER IN NEARBY STATES *****

CITY           SKY/WX    TMP DP  RH WIND       PRES   REMARKS
GLASGOW MT     CLOUDY    66  32  28 N15       30.14R
6HR MIN TEMP:  63; 6HR MAX TEMP:  71;

GREAT FALLS MT CLOUDY    70  36  28 NW5       30.20S
6HR MIN TEMP:  62; 6HR MAX TEMP:  71;

CHEYENNE WY    CLOUDY    43  35  73 NW17G24   30.17F
6HR MIN TEMP:  37; 6HR MAX TEMP:  60; 6HR PCP:  0.18;

SCOTTSBLUFF NE PTSUNNY   57  38  48 NW25G35   30.11R
6HR MIN TEMP:  52; 6HR MAX TEMP:  59; 6HR PCP:  0.01;

OMAHA NE       PTSUNNY   64  52  64 SW6       29.86R
6HR MIN TEMP:  64; 6HR MAX TEMP:  75; 6HR PCP: TRACE;

DES MOINES IA  CLOUDY    68  52  56 SW18      29.83S
6HR MIN TEMP:  68; 6HR MAX TEMP:  72;

DAVENPORT IA   FAIR      63  54  72 S13       29.86F
6HR MIN TEMP:  63; 6HR MAX TEMP:  69; 6HR PCP: TRACE;

CHICAGO IL     CLOUDY    68  51  54 SW16G30   29.90S
6HR MIN TEMP:  68; 6HR MAX TEMP:  73;

EAU CLAIRE WI  CLOUDY    62  44  51 NW5       29.80S
6HR MIN TEMP:  62; 6HR MAX TEMP:  67;

LA CROSSE WI   FAIR      69  49  48 W8        29.79S
6HR MIN TEMP:  67; 6HR MAX TEMP:  73;

$$

  *****  SOME NATIONAL WEATHER *****

CITY           SKY/WX    TMP DP  RH WIND       PRES   REMARKS
LA GUARDIA NY  CLOUDY    61  59  93 S6        29.96S FOG
6HR MIN TEMP:  60; 6HR MAX TEMP:  62; 6HR PCP:  0.37;



USA.gov is the U.S. government's official web portal to all federal, state and local government web resources and services.